Elmendorf AFB, AK

5:42 AM AKDT on April 28, 2017 (GMT -0800)
Elmendorf Air Force Base

Weather History for PAED - November, 2012

Change the Weather History Date:

Thursday, November 15, 2012

  Actual Average Record
Temperature  
Mean Temperature 24 °F -  
Max Temperature 26 °F 28 °F 48 °F (1979)
Min Temperature 19 °F 15 °F -9 °F (2003)
Degree Days  
Heating Degree Days 42    
Moisture  
Dew Point 21 °F    
Average Humidity 87    
Maximum Humidity 93    
Minimum Humidity 80    
Precipitation  
Precipitation 0.00 in - - ()
Snow  
Snow 0.00 in - - ()
Snow Depth 3.00 in    
Sea Level Pressure  
Sea Level Pressure 29.48 in    
Wind  
Wind Speed 4 mph (NE)    
Max Wind Speed 8 mph    
Max Gust Speed -    
Visibility 10 miles    
Events      
Averages and records for this station are not official NWS values.
T = Trace of Precipitation, MM = Missing Value Source: NWS Daily Summary

Daily Weather History Graph

Daily Weather History Graph

Search for Another Location

Airport or City:

Trip Planner

Search our weather history database for the weather conditions in past years. The results will help you decide how hot, cold, wet, or windy it might be!

Date:

Astronomy

Nov. 15, 2012 Rise Set
Actual Time 9:07 AM AKST 4:19 PM AKST
Civil Twilight 8:15 AM AKST 5:11 PM AKST
Nautical Twilight 7:20 AM AKST 6:06 PM AKST
Astronomical Twilight 6:29 AM AKST 6:57 PM AKST
Moon 11:38 AM AKST (11/15) 5:58 PM AKST (11/15)
Length of Visible Light 8h 56m
Length of Day
7h 12m
Waxing Crescent, 6% of the Moon is Illuminated
Nov 15
Waxing Crescent
Nov 20
First Quarter
Nov 28
Full
Dec 6
Last Quarter
Dec 12
New

Hourly Weather History & Observations

Time (AKST) Temp. Windchill Dew Point Humidity Pressure Visibility Wind Dir Wind Speed Gust Speed Precip Events Conditions
12:55 AM 24.6 °F 17.7 °F 22.8 °F 93% 29.37 in 10.0 mi NNE 5.8 mph - N/A   Overcast
1:55 AM 24.6 °F 15.8 °F 22.5 °F 91% 29.37 in 10.0 mi NNE 8.1 mph - N/A   Scattered Clouds
2:55 AM 24.1 °F 17.0 °F 22.1 °F 92% 29.38 in 10.0 mi NE 5.8 mph - N/A   Partly Cloudy
3:55 AM 21.2 °F - 19.2 °F 92% 29.40 in 10.0 mi Calm Calm - N/A   Overcast
4:29 AM 24.8 °F - 21.2 °F 86% 29.40 in 10.0 mi Calm Calm - N/A   Overcast
4:43 AM 21.2 °F - 19.4 °F 93% 29.41 in 10.0 mi Calm Calm - N/A   Overcast
4:55 AM 21.4 °F - 19.6 °F 93% 29.41 in 10.0 mi Calm Calm - N/A   Overcast
5:32 AM 23.0 °F - 19.4 °F 86% 29.42 in 10.0 mi Calm Calm - N/A   Overcast
5:55 AM 21.7 °F - 19.4 °F 91% 29.42 in 10.0 mi Calm Calm - N/A   Overcast
6:17 AM 23.0 °F 18.4 °F 21.2 °F 93% 29.42 in 10.0 mi NE 3.5 mph - N/A   Overcast
6:55 AM 22.3 °F 16.1 °F 19.8 °F 90% 29.43 in 10.0 mi Variable 4.6 mph - N/A   Overcast
7:55 AM 22.1 °F 15.9 °F 19.8 °F 91% 29.44 in 10.0 mi ESE 4.6 mph - N/A   Overcast
8:55 AM 23.5 °F 16.4 °F 21.0 °F 90% 29.45 in 10.0 mi NNE 5.8 mph - N/A   Overcast
9:55 AM 24.6 °F 18.8 °F 21.6 °F 88% 29.46 in 10.0 mi NE 4.6 mph - N/A   Overcast
10:55 AM 24.6 °F - 21.9 °F 89% 29.47 in 10.0 mi Calm Calm - N/A   Overcast
11:16 AM 24.8 °F 16.9 °F 21.2 °F 86% 29.47 in 10.0 mi NNE 6.9 mph - N/A   Mostly Cloudy
11:27 AM 24.8 °F 16.9 °F 23.0 °F 93% 29.45 in 10.0 mi Variable 6.9 mph - N/A   Mostly Cloudy
11:55 AM 25.5 °F 18.7 °F 22.1 °F 87% 29.48 in 10.0 mi Variable 5.8 mph - 0.00 in   Mostly Cloudy
12:55 PM 25.3 °F 17.6 °F 21.4 °F 85% 29.48 in 10.0 mi NNE 6.9 mph - N/A   Mostly Cloudy
1:55 PM 25.9 °F 18.2 °F 21.7 °F 84% 29.49 in 10.0 mi Variable 6.9 mph - N/A   Overcast
2:55 PM 26.2 °F 17.8 °F 21.6 °F 82% 29.49 in 10.0 mi NNE 8.1 mph - N/A   Mostly Cloudy
3:55 PM 26.1 °F 21.9 °F 21.4 °F 82% 29.50 in 10.0 mi ENE 3.5 mph - N/A   Mostly Cloudy
4:55 PM 25.0 °F 19.3 °F 20.8 °F 84% 29.50 in 10.0 mi ENE 4.6 mph - N/A   Partly Cloudy
5:55 PM 26.4 °F 19.8 °F 21.4 °F 81% 29.52 in 10.0 mi NNE 5.8 mph - N/A   Clear
6:55 PM 26.6 °F 19.1 °F 21.6 °F 81% 29.54 in 10.0 mi NNE 6.9 mph - N/A   Mostly Cloudy
6:58 PM 26.6 °F 19.1 °F 21.2 °F 80% 29.54 in 10.0 mi NNE 6.9 mph - N/A   Mostly Cloudy
7:21 PM 26.6 °F 21.2 °F 21.2 °F 80% 29.55 in 10.0 mi NE 4.6 mph - N/A   Scattered Clouds
7:55 PM 25.3 °F - 20.5 °F 82% 29.56 in 10.0 mi Calm Calm - N/A   Clear
8:55 PM 21.7 °F 15.5 °F 18.3 °F 87% 29.58 in 10.0 mi ENE 4.6 mph - N/A   Scattered Clouds
9:55 PM 25.3 °F 19.7 °F 20.1 °F 81% 29.59 in 10.0 mi NE 4.6 mph - N/A   Clear
10:55 PM 23.9 °F 18.0 °F 18.7 °F 80% 29.61 in 10.0 mi NE 4.6 mph - N/A   Clear
11:55 PM 19.0 °F 12.3 °F 16.5 °F 90% 29.62 in 10.0 mi NE 4.6 mph - N/A   Clear